Location: Castillon
(43.1358°N, 0.8654°E)
Time: 19:39:44
(UTC+00:00)

CZ-2C R/B - Pass Details

Date: 24 January 2021
Orbit: 704 x 908 km, 98.1° (Epoch: 28 February)

Event Time Altitude Azimuth Distance (km) Brightness Sun altitude
Rises 18:06:36 0° 161° (SSE) 3,295 6.2 -12.5°
Reaches altitude 10° 18:08:52 10° 160° (SSE) 2,399 5.5 -12.9°
Maximum altitude 18:14:12 78° 75° (ENE) 871 3.1 -13.8°
Drops below altitude 10° 18:19:52 10° 350° (N) 2,540 5.7 -14.8°
Sets 18:22:19 0° 349° (N) 3,504 6.4 -15.3°
